Weather in Paranaiba

Brazil     19°41′24″S   51°11′12″W
temp.,
°C
wind,
m/s
gust,
m/s
humid.,
%
clouds,
%
prec.,
mm/h
press.,
hPa
HPBL,
m
16 may, sun
sun1623:00+19s22572 0.0 101711
02:00+18ssw22643 0.0 101616
05:00+16sse227384 0.0 101612
08:00+23e235118 0.0 1019355
11:00+30se213210 0.0 10171370
14:00+32sse232836 0.0 10132980
17:00+26sse343893 0.0 101463
20:00+23s344422 0.0 101669
17 may, mon
mon1723:00+23s2546100 0.0 1016120
02:00+20se37525 0.0 1015173
05:00+18e1260100 0.0 101611
08:00+24e2445100 0.0 1018330
11:00+30ese2230100 0.0 10161284
14:00+32ssw2324100 0.0 10133193
17:00+27s493219 0.0 1013247
20:00+22ssw354599 0.0 101576
18 may, tue
tue1823:00+21s2247100 0.0 101515
02:00+19se375423 0.0 1014115
05:00+17sw116315 0.0 101611
08:00+24ene23420 0.0 1017312
11:00+31ene22260 0.0 10151588
14:00+33ssw23220 0.0 10122969
17:00+26sse22324 0.0 101216
20:00+22s22430 0.0 101411
19 may, wed
wed1923:00+21se11470 0.0 101411
02:00+19sse33535 0.0 101339
05:00+17e11605 0.0 101511
08:00+24ne234014 0.0 1016278
11:00+32nne23245 0.0 10141606
14:00+35nnw12195 0.0 10103102
17:00+27e33275 0.0 101024
20:00+23se22365 0.0 101211
20 may, thu
thu2023:00+21ene22395 0.0 101217
02:00+19e224385 0.0 101311
05:00+18ene2248100 0.0 101325
08:00+25nne343247 0.0 1015275
11:00+33nne451739 0.0 10132194
14:00+35n24165 0.0 10093463
17:00+28ne332346 0.0 101035
20:00+27ene222488 0.0 101121